Time,TemperatureF,DewpointF,PressureIn,WindDirection,WindDirectionDegrees,WindSpeedMPH,WindSpeedGustMPH,Humidity,HourlyPrecipIn,Conditions,Clouds,dailyrainin,SoftwareType,DateUTC
2013-06-03 00:01:00,67.8,65.1,29.85,NE,52,0.0,2.0,91,0.00,,,0.00,Weather View 32 v70,2013-06-03 04:01:00,
2013-06-03 00:02:00,67.8,65.1,29.85,SSE,149,0.0,2.0,91,0.00,,,0.00,Weather View 32 v70,2013-06-03 04:02:00,
2013-06-03 00:07:00,67.8,65.1,29.85,ENE,74,1.0,2.0,91,0.00,,,0.00,Weather View 32 v70,2013-06-03 04:07:00,
2013-06-03 00:12:00,68.0,65.6,29.86,ENE,74,0.0,2.0,92,0.00,,,0.00,Weather View 32 v70,2013-06-03 04:12:00,
2013-06-03 00:17:00,68.0,65.6,29.86,West,270,0.0,2.0,92,0.00,,,0.00,Weather View 32 v70,2013-06-03 04:17:00,
2013-06-03 00:23:00,68.0,65.6,29.85,North,360,1.0,2.0,92,0.00,,,0.00,Weather View 32 v70,2013-06-03 04:23:00,
2013-06-03 00:28:00,68.0,65.6,29.86,NNW,344,1.0,2.0,92,0.00,,,0.00,Weather View 32 v70,2013-06-03 04:28:00,
2013-06-03 00:33:00,68.0,65.6,29.86,SW,226,2.0,2.0,92,0.00,,,0.00,Weather View 32 v70,2013-06-03 04:33:00,
2013-06-03 00:38:00,68.0,65.6,29.86,West,280,1.0,2.0,92,0.00,,,0.00,Weather View 32 v70,2013-06-03 04:38:00,
2013-06-03 00:43:00,68.0,65.6,29.86,SW,234,0.0,2.0,92,0.00,,,0.00,Weather View 32 v70,2013-06-03 04:43:00,
2013-06-03 00:48:00,67.8,65.4,29.86,SE,146,0.0,2.0,92,0.00,,,0.00,Weather View 32 v70,2013-06-03 04:48:00,
2013-06-03 00:53:00,68.0,65.6,29.86,SE,137,1.0,2.0,92,0.00,,,0.00,Weather View 32 v70,2013-06-03 04:53:00,
2013-06-03 00:58:00,68.0,65.6,29.86,SSE,147,1.0,2.0,92,0.00,,,0.00,Weather View 32 v70,2013-06-03 04:58:00,
2013-06-03 01:03:00,67.8,65.4,29.85,SSE,156,0.0,2.0,92,0.00,,,0.00,Weather View 32 v70,2013-06-03 05:03:00,
2013-06-03 01:08:00,68.0,65.9,29.85,West,267,0.0,2.0,93,0.00,,,0.00,Weather View 32 v70,2013-06-03 05:08:00,
2013-06-03 01:13:00,67.8,65.4,29.85,SSW,194,1.0,2.0,92,0.00,,,0.00,Weather View 32 v70,2013-06-03 05:13:00,
2013-06-03 01:18:00,67.8,65.7,29.86,WSW,258,0.0,2.0,93,0.00,,,0.00,Weather View 32 v70,2013-06-03 05:18:00,
2013-06-03 01:23:00,68.0,65.9,29.85,SSW,201,0.0,2.0,93,0.00,,,0.00,Weather View 32 v70,2013-06-03 05:23:00,
2013-06-03 01:28:00,67.6,65.5,29.86,SSW,203,0.0,2.0,93,0.00,,,0.00,Weather View 32 v70,2013-06-03 05:28:00,
2013-06-03 01:33:00,67.4,65.3,29.86,WNW,284,0.0,2.0,93,0.00,,,0.00,Weather View 32 v70,2013-06-03 05:33:00,
2013-06-03 01:38:00,67.2,65.1,29.86,NW,313,0.0,2.0,93,0.00,,,0.00,Weather View 32 v70,2013-06-03 05:38:00,
2013-06-03 01:43:00,67.2,65.1,29.86,ESE,123,0.0,2.0,93,0.00,,,0.00,Weather View 32 v70,2013-06-03 05:43:00,
2013-06-03 01:48:00,67.1,65.0,29.86,North,8,0.0,2.0,93,0.00,,,0.00,Weather View 32 v70,2013-06-03 05:48:00,
2013-06-03 01:53:00,66.9,64.8,29.86,NNW,342,0.0,2.0,93,0.00,,,0.00,Weather View 32 v70,2013-06-03 05:53:00,
2013-06-03 01:58:00,66.5,64.4,29.86,WNW,298,0.0,1.0,93,0.00,,,0.00,Weather View 32 v70,2013-06-03 05:58:00,
2013-06-03 02:03:00,66.5,64.4,29.86,West,260,0.0,1.0,93,0.00,,,0.00,Weather View 32 v70,2013-06-03 06:03:00,
2013-06-03 02:08:00,66.5,64.4,29.86,SW,228,0.0,1.0,93,0.00,,,0.00,Weather View 32 v70,2013-06-03 06:08:00,
2013-06-03 02:13:00,66.3,64.2,29.86,SW,223,1.0,1.0,93,0.00,,,0.00,Weather View 32 v70,2013-06-03 06:13:00,
2013-06-03 02:18:00,66.3,64.2,29.86,SSW,212,1.0,1.0,93,0.00,,,0.00,Weather View 32 v70,2013-06-03 06:18:00,
2013-06-03 02:23:00,66.2,64.1,29.87,SSW,202,1.0,1.0,93,0.00,,,0.00,Weather View 32 v70,2013-06-03 06:23:00,
2013-06-03 02:28:00,66.2,64.1,29.86,NNW,336,0.0,1.0,93,0.00,,,0.00,Weather View 32 v70,2013-06-03 06:28:00,
2013-06-03 02:33:00,66.2,64.1,29.86,WNW,284,1.0,1.0,93,0.00,,,0.00,Weather View 32 v70,2013-06-03 06:33:00,
2013-06-03 02:38:00,65.8,63.7,29.86,WNW,283,0.0,1.0,93,0.00,,,0.00,Weather View 32 v70,2013-06-03 06:38:00,
2013-06-03 02:43:00,65.6,63.5,29.86,WNW,282,0.0,1.0,93,0.00,,,0.00,Weather View 32 v70,2013-06-03 06:43:00,
2013-06-03 02:49:00,65.6,63.5,29.86,West,266,0.0,1.0,93,0.00,,,0.00,Weather View 32 v70,2013-06-03 06:49:00,
2013-06-03 02:54:00,65.6,63.5,29.86,SW,219,0.0,1.0,93,0.00,,,0.00,Weather View 32 v70,2013-06-03 06:54:00,
2013-06-03 02:59:00,65.4,63.3,29.86,SW,224,2.0,2.0,93,0.00,,,0.00,Weather View 32 v70,2013-06-03 06:59:00,
2013-06-03 03:04:00,65.4,63.3,29.86,SW,229,1.0,2.0,93,0.00,,,0.00,Weather View 32 v70,2013-06-03 07:04:00,
2013-06-03 03:09:00,65.4,63.3,29.86,NNW,338,0.0,2.0,93,0.00,,,0.00,Weather View 32 v70,2013-06-03 07:09:00,
2013-06-03 03:14:00,65.4,63.3,29.86,NNW,329,1.0,2.0,93,0.00,,,0.00,Weather View 32 v70,2013-06-03 07:14:00,
2013-06-03 03:19:00,65.3,63.2,29.86,NW,326,1.0,2.0,93,0.00,,,0.00,Weather View 32 v70,2013-06-03 07:19:00,
2013-06-03 03:24:00,65.3,63.5,29.86,SW,230,0.0,2.0,94,0.00,,,0.00,Weather View 32 v70,2013-06-03 07:24:00,
2013-06-03 03:29:00,65.3,63.5,29.86,WNW,284,0.0,2.0,94,0.00,,,0.00,Weather View 32 v70,2013-06-03 07:29:00,
2013-06-03 03:34:00,65.3,63.5,29.87,WNW,294,0.0,2.0,94,0.00,,,0.00,Weather View 32 v70,2013-06-03 07:34:00,
2013-06-03 03:39:00,65.3,63.5,29.87,NNW,328,1.0,2.0,94,0.00,,,0.00,Weather View 32 v70,2013-06-03 07:39:00,
2013-06-03 03:44:00,65.1,63.3,29.87,NW,318,1.0,2.0,94,0.00,,,0.00,Weather View 32 v70,2013-06-03 07:44:00,
2013-06-03 03:49:00,65.1,63.3,29.86,NNW,332,2.0,2.0,94,0.00,,,0.00,Weather View 32 v70,2013-06-03 07:49:00,
2013-06-03 03:54:00,64.9,63.1,29.86,WNW,298,2.0,3.0,94,0.00,,,0.00,Weather View 32 v70,2013-06-03 07:54:00,
2013-06-03 03:59:00,64.9,63.1,29.86,WNW,286,1.0,3.0,94,0.00,,,0.00,Weather View 32 v70,2013-06-03 07:59:00,
2013-06-03 04:04:00,64.5,62.7,29.87,SW,214,1.0,3.0,94,0.00,,,0.00,Weather View 32 v70,2013-06-03 08:04:00,
2013-06-03 04:09:00,64.0,62.2,29.87,South,178,1.0,3.0,94,0.00,,,0.00,Weather View 32 v70,2013-06-03 08:09:00,
2013-06-03 04:14:00,64.0,62.2,29.87,SSW,209,0.0,3.0,94,0.00,,,0.00,Weather View 32 v70,2013-06-03 08:14:00,
2013-06-03 04:19:00,63.8,62.0,29.87,WSW,237,0.0,3.0,94,0.00,,,0.00,Weather View 32 v70,2013-06-03 08:19:00,
2013-06-03 04:24:00,63.6,61.8,29.87,NW,313,0.0,3.0,94,0.00,,,0.00,Weather View 32 v70,2013-06-03 08:24:00,
2013-06-03 04:29:00,63.5,61.7,29.88,North,355,1.0,3.0,94,0.00,,,0.00,Weather View 32 v70,2013-06-03 08:29:00,
2013-06-03 04:34:00,63.5,61.7,29.88,North,350,1.0,3.0,94,0.00,,,0.00,Weather View 32 v70,2013-06-03 08:34:00,
2013-06-03 04:39:00,63.5,61.7,29.87,South,181,0.0,3.0,94,0.00,,,0.00,Weather View 32 v70,2013-06-03 08:39:00,
2013-06-03 04:44:00,63.5,61.7,29.87,SSW,210,1.0,3.0,94,0.00,,,0.00,Weather View 32 v70,2013-06-03 08:44:00,
2013-06-03 04:49:00,63.5,61.7,29.87,West,267,0.0,3.0,94,0.00,,,0.00,Weather View 32 v70,2013-06-03 08:49:00,
2013-06-03 04:54:00,63.3,60.9,29.87,SW,221,0.0,2.0,92,0.00,,,0.00,Weather View 32 v70,2013-06-03 08:54:00,
2013-06-03 04:59:00,63.3,60.9,29.87,SSW,212,1.0,2.0,92,0.00,,,0.00,Weather View 32 v70,2013-06-03 08:59:00,
2013-06-03 05:04:00,63.1,60.7,29.88,North,11,0.0,2.0,92,0.00,,,0.00,Weather View 32 v70,2013-06-03 09:04:00,
2013-06-03 05:09:00,63.3,60.9,29.88,NNW,332,1.0,3.0,92,0.00,,,0.00,Weather View 32 v70,2013-06-03 09:09:00,
2013-06-03 05:14:00,62.9,60.5,29.88,SW,236,1.0,3.0,92,0.00,,,0.00,Weather View 32 v70,2013-06-03 09:14:00,
2013-06-03 05:19:00,62.9,60.5,29.89,NNW,336,0.0,3.0,92,0.00,,,0.00,Weather View 32 v70,2013-06-03 09:19:00,
2013-06-03 05:25:00,62.7,60.3,29.89,ENE,60,2.0,3.0,92,0.00,,,0.00,Weather View 32 v70,2013-06-03 09:25:00,
2013-06-03 05:30:00,62.7,60.3,29.89,ENE,66,1.0,3.0,92,0.00,,,0.00,Weather View 32 v70,2013-06-03 09:30:00,
2013-06-03 05:35:00,62.7,60.3,29.90,NNW,338,2.0,3.0,92,0.00,,,0.00,Weather View 32 v70,2013-06-03 09:35:00,
2013-06-03 05:40:00,62.7,60.0,29.89,SSW,194,1.0,3.0,91,0.00,,,0.00,Weather View 32 v70,2013-06-03 09:40:00,
2013-06-03 05:45:00,62.6,59.9,29.90,SSW,199,1.0,3.0,91,0.00,,,0.00,Weather View 32 v70,2013-06-03 09:45:00,
2013-06-03 05:50:00,62.6,59.9,29.90,NNW,340,1.0,4.0,91,0.00,,,0.00,Weather View 32 v70,2013-06-03 09:50:00,
2013-06-03 05:55:00,62.6,59.9,29.89,NW,325,0.0,4.0,91,0.00,,,0.00,Weather View 32 v70,2013-06-03 09:55:00,
2013-06-03 06:00:00,62.4,59.7,29.89,NW,308,0.0,4.0,91,0.00,,,0.00,Weather View 32 v70,2013-06-03 10:00:00,
2013-06-03 06:05:00,62.4,59.7,29.89,ENE,58,0.0,4.0,91,0.00,,,0.00,Weather View 32 v70,2013-06-03 10:05:00,
2013-06-03 06:10:00,62.4,59.7,29.89,North,4,1.0,4.0,91,0.00,,,0.00,Weather View 32 v70,2013-06-03 10:10:00,
2013-06-03 06:15:00,62.0,59.3,29.90,NNW,328,3.0,8.0,91,0.00,,,0.00,Weather View 32 v70,2013-06-03 10:15:00,
2013-06-03 06:20:00,62.0,58.7,29.90,NW,304,4.0,8.0,89,0.00,,,0.00,Weather View 32 v70,2013-06-03 10:20:00,
2013-06-03 06:25:00,61.7,57.8,29.90,NW,322,3.0,8.0,87,0.00,,,0.00,Weather View 32 v70,2013-06-03 10:25:00,
2013-06-03 06:30:00,61.5,57.3,29.91,WNW,290,3.0,8.0,86,0.00,,,0.00,Weather View 32 v70,2013-06-03 10:30:00,
2013-06-03 06:35:00,61.3,57.1,29.91,NNW,337,5.0,10.0,86,0.00,,,0.00,Weather View 32 v70,2013-06-03 10:35:00,
2013-06-03 06:40:00,61.1,56.5,29.91,NW,312,1.0,10.0,85,0.00,,,0.00,Weather View 32 v70,2013-06-03 10:40:00,
2013-06-03 06:45:00,60.9,56.3,29.91,North,1,4.0,12.0,85,0.00,,,0.00,Weather View 32 v70,2013-06-03 10:45:00,
2013-06-03 06:50:00,60.9,56.3,29.91,NNW,328,4.0,12.0,85,0.00,,,0.00,Weather View 32 v70,2013-06-03 10:50:00,
2013-06-03 06:55:00,60.6,55.7,29.91,NNE,20,2.0,12.0,84,0.00,,,0.00,Weather View 32 v70,2013-06-03 10:55:00,
2013-06-03 07:01:00,61.1,56.5,29.92,NW,316,4.0,12.0,85,0.00,,,0.00,Weather View 32 v70,2013-06-03 11:01:00,
2013-06-03 07:06:00,61.5,56.9,29.92,NW,310,3.0,12.0,85,0.00,,,0.00,Weather View 32 v70,2013-06-03 11:06:00,
2013-06-03 07:11:00,62.0,57.1,29.92,NW,325,1.0,12.0,84,0.00,,,0.00,Weather View 32 v70,2013-06-03 11:11:00,
2013-06-03 07:16:00,62.4,57.5,29.92,North,349,3.0,12.0,84,0.00,,,0.00,Weather View 32 v70,2013-06-03 11:16:00,
2013-06-03 07:21:00,62.6,57.3,29.92,NNE,30,2.0,12.0,83,0.00,,,0.00,Weather View 32 v70,2013-06-03 11:21:00,
2013-06-03 07:30:00,63.1,57.5,29.92,NNE,23,1.0,12.0,82,0.00,,,0.00,Weather View 32 v70,2013-06-03 11:30:00,
2013-06-03 07:35:00,63.5,57.9,29.92,North,6,2.0,12.0,82,0.00,,,0.00,Weather View 32 v70,2013-06-03 11:35:00,
2013-06-03 07:40:00,63.3,57.0,29.92,NNW,327,3.0,12.0,80,0.00,,,0.00,Weather View 32 v70,2013-06-03 11:40:00,
2013-06-03 07:45:00,63.3,57.4,29.92,NE,56,1.0,8.0,81,0.00,,,0.00,Weather View 32 v70,2013-06-03 11:45:00,
2013-06-03 07:50:00,64.4,58.8,29.92,WSW,241,2.0,8.0,82,0.00,,,0.00,Weather View 32 v70,2013-06-03 11:50:00,
2013-06-03 07:55:00,65.1,59.1,29.92,WNW,287,1.0,8.0,81,0.00,,,0.00,Weather View 32 v70,2013-06-03 11:55:00,
2013-06-03 08:00:00,65.3,58.6,29.91,NW,309,2.0,8.0,79,0.00,,,0.00,Weather View 32 v70,2013-06-03 12:00:00,
2013-06-03 08:05:00,65.4,58.3,29.91,West,268,1.0,8.0,78,0.00,,,0.00,Weather View 32 v70,2013-06-03 12:05:00,
2013-06-03 08:10:00,65.1,57.7,29.91,NW,317,2.0,8.0,77,0.00,,,0.00,Weather View 32 v70,2013-06-03 12:10:00,
2013-06-03 08:15:00,64.4,57.7,29.92,NNW,347,1.0,6.0,79,0.00,,,0.00,Weather View 32 v70,2013-06-03 12:15:00,
2013-06-03 08:20:00,63.8,56.8,29.92,NNE,21,2.0,7.0,78,0.00,,,0.00,Weather View 32 v70,2013-06-03 12:20:00,
2013-06-03 08:25:00,63.8,56.4,29.92,NNW,329,3.0,8.0,77,0.00,,,0.00,Weather View 32 v70,2013-06-03 12:25:00,
2013-06-03 08:30:00,63.3,55.2,29.92,North,353,6.0,8.0,75,0.00,,,0.00,Weather View 32 v70,2013-06-03 12:30:00,
2013-06-03 08:35:00,62.6,55.3,29.93,South,172,1.0,12.0,77,0.00,,,0.00,Weather View 32 v70,2013-06-03 12:35:00,
2013-06-03 08:40:00,62.4,54.7,29.93,NNW,328,4.0,12.0,76,0.00,,,0.00,Weather View 32 v70,2013-06-03 12:40:00,
2013-06-03 08:45:00,62.6,54.9,29.94,NW,319,2.0,12.0,76,0.00,,,0.00,Weather View 32 v70,2013-06-03 12:45:00,
2013-06-03 08:50:00,62.6,54.5,29.94,NNW,340,3.0,12.0,75,0.00,,,0.00,Weather View 32 v70,2013-06-03 12:50:00,
2013-06-03 08:55:00,62.6,54.9,29.93,North,349,6.0,12.0,76,0.00,,,0.00,Weather View 32 v70,2013-06-03 12:55:00,
2013-06-03 09:00:00,62.6,54.2,29.94,North,354,3.0,12.0,74,0.00,,,0.00,Weather View 32 v70,2013-06-03 13:00:00,
2013-06-03 09:05:00,62.0,53.6,29.94,NW,324,2.0,12.0,74,0.00,,,0.00,Weather View 32 v70,2013-06-03 13:05:00,
2013-06-03 09:10:00,62.0,53.2,29.94,West,275,1.0,12.0,73,0.00,,,0.00,Weather View 32 v70,2013-06-03 13:10:00,
2013-06-03 09:15:00,62.0,53.6,29.94,NNW,331,0.0,12.0,74,0.00,,,0.00,Weather View 32 v70,2013-06-03 13:15:00,
2013-06-03 09:20:00,62.6,54.5,29.94,NW,319,2.0,12.0,75,0.00,,,0.00,Weather View 32 v70,2013-06-03 13:20:00,
2013-06-03 09:25:00,62.7,53.5,29.94,NNW,335,11.0,12.0,72,0.00,,,0.00,Weather View 32 v70,2013-06-03 13:25:00,
2013-06-03 09:30:00,62.7,53.1,29.94,NNW,337,3.0,12.0,71,0.00,,,0.00,Weather View 32 v70,2013-06-03 13:30:00,
2013-06-03 09:35:00,62.6,53.4,29.94,NNE,17,3.0,11.0,72,0.00,,,0.00,Weather View 32 v70,2013-06-03 13:35:00,
2013-06-03 09:40:00,62.4,52.8,29.94,NW,321,5.0,11.0,71,0.00,,,0.00,Weather View 32 v70,2013-06-03 13:40:00,
2013-06-03 09:45:00,62.4,53.6,29.95,North,350,5.0,11.0,73,0.00,,,0.00,Weather View 32 v70,2013-06-03 13:45:00,
2013-06-03 09:50:00,62.4,52.5,29.95,WNW,292,5.0,12.0,70,0.00,,,0.00,Weather View 32 v70,2013-06-03 13:50:00,
2013-06-03 09:55:00,62.2,52.7,29.95,NNW,328,2.0,12.0,71,0.00,,,0.00,Weather View 32 v70,2013-06-03 13:55:00,
2013-06-03 10:00:00,62.0,52.8,29.95,NNW,340,3.0,12.0,72,0.00,,,0.00,Weather View 32 v70,2013-06-03 14:00:00,
2013-06-03 10:05:00,62.0,52.8,29.95,ENE,69,3.0,12.0,72,0.00,,,0.00,Weather View 32 v70,2013-06-03 14:05:00,
2013-06-03 10:10:00,62.4,52.8,29.95,SSW,209,3.0,12.0,71,0.00,,,0.00,Weather View 32 v70,2013-06-03 14:10:00,
2013-06-03 10:15:00,62.7,53.5,29.95,North,359,2.0,12.0,72,0.00,,,0.00,Weather View 32 v70,2013-06-03 14:15:00,
2013-06-03 10:20:00,62.6,52.7,29.95,NNE,32,6.0,12.0,70,0.00,,,0.00,Weather View 32 v70,2013-06-03 14:20:00,
2013-06-03 10:25:00,62.7,52.7,29.95,NNW,345,2.0,12.0,70,0.00,,,0.00,Weather View 32 v70,2013-06-03 14:25:00,
2013-06-03 10:30:00,63.5,53.5,29.94,NW,306,6.0,12.0,70,0.00,,,0.00,Weather View 32 v70,2013-06-03 14:30:00,
2013-06-03 10:35:00,63.5,53.5,29.94,NW,316,5.0,12.0,70,0.00,,,0.00,Weather View 32 v70,2013-06-03 14:35:00,
2013-06-03 10:40:00,63.3,53.3,29.94,NW,317,2.0,12.0,70,0.00,,,0.00,Weather View 32 v70,2013-06-03 14:40:00,
2013-06-03 10:45:00,63.1,53.1,29.94,North,354,6.0,12.0,70,0.00,,,0.00,Weather View 32 v70,2013-06-03 14:45:00,
2013-06-03 10:50:00,62.7,52.7,29.94,North,350,3.0,12.0,70,0.00,,,0.00,Weather View 32 v70,2013-06-03 14:50:00,
2013-06-03 10:55:00,63.3,53.3,29.94,West,270,2.0,11.0,70,0.00,,,0.00,Weather View 32 v70,2013-06-03 14:55:00,
2013-06-03 11:01:00,64.2,54.6,29.94,WSW,245,1.0,11.0,71,0.00,,,0.00,Weather View 32 v70,2013-06-03 15:01:00,
2013-06-03 11:06:00,65.1,53.4,29.93,NNW,330,3.0,11.0,66,0.00,,,0.00,Weather View 32 v70,2013-06-03 15:06:00,
2013-06-03 11:11:00,65.4,54.1,29.93,West,273,4.0,11.0,67,0.00,,,0.00,Weather View 32 v70,2013-06-03 15:11:00,
2013-06-03 11:16:00,66.7,54.9,29.93,North,9,1.0,11.0,66,0.00,,,0.00,Weather View 32 v70,2013-06-03 15:16:00,
2013-06-03 11:21:00,67.8,54.3,29.93,NE,43,4.0,11.0,62,0.00,,,0.00,Weather View 32 v70,2013-06-03 15:21:00,
2013-06-03 11:26:00,67.8,53.8,29.92,North,8,8.0,12.0,61,0.00,,,0.00,Weather View 32 v70,2013-06-03 15:26:00,
2013-06-03 11:32:00,67.1,54.0,29.92,North,353,4.0,12.0,63,0.00,,,0.00,Weather View 32 v70,2013-06-03 15:32:00,
2013-06-03 11:37:00,66.9,53.4,29.92,NW,309,6.0,12.0,62,0.00,,,0.00,Weather View 32 v70,2013-06-03 15:37:00,
2013-06-03 11:42:00,66.0,53.9,29.92,SW,226,2.0,12.0,65,0.00,,,0.00,Weather View 32 v70,2013-06-03 15:42:00,
2013-06-03 11:47:00,66.3,54.6,29.92,North,349,5.0,12.0,66,0.00,,,0.00,Weather View 32 v70,2013-06-03 15:47:00,
2013-06-03 11:52:00,66.5,54.3,29.92,North,352,5.0,12.0,65,0.00,,,0.00,Weather View 32 v70,2013-06-03 15:52:00,
2013-06-03 11:58:00,66.3,54.1,29.92,North,353,2.0,12.0,65,0.00,,,0.00,Weather View 32 v70,2013-06-03 15:58:00,
2013-06-03 12:03:00,66.7,53.2,29.91,NNW,334,5.0,12.0,62,0.00,,,0.00,Weather View 32 v70,2013-06-03 16:03:00,
2013-06-03 12:08:00,67.1,55.7,29.91,North,357,3.0,12.0,67,0.00,,,0.00,Weather View 32 v70,2013-06-03 16:08:00,
2013-06-03 12:13:00,67.8,53.4,29.91,WNW,284,3.0,12.0,60,0.00,,,0.00,Weather View 32 v70,2013-06-03 16:13:00,
2013-06-03 12:19:00,67.8,55.6,29.91,SW,222,1.0,12.0,65,0.00,,,0.00,Weather View 32 v70,2013-06-03 16:19:00,
2013-06-03 12:24:00,69.0,54.0,29.91,North,350,6.0,12.0,59,0.00,,,0.00,Weather View 32 v70,2013-06-03 16:24:00,
2013-06-03 12:29:00,68.9,54.9,29.90,SSW,196,2.0,12.0,61,0.00,,,0.00,Weather View 32 v70,2013-06-03 16:29:00,
2013-06-03 12:35:00,67.8,53.8,29.90,NNE,13,4.0,12.0,61,0.00,,,0.00,Weather View 32 v70,2013-06-03 16:35:00,
2013-06-03 12:40:00,68.1,54.1,29.91,North,351,10.0,12.0,61,0.00,,,0.00,Weather View 32 v70,2013-06-03 16:40:00,
2013-06-03 12:45:00,68.3,54.3,29.90,NNW,332,5.0,13.0,61,0.00,,,0.00,Weather View 32 v70,2013-06-03 16:45:00,
2013-06-03 12:50:00,69.2,55.6,29.91,SW,223,5.0,13.0,62,0.00,,,0.00,Weather View 32 v70,2013-06-03 16:50:00,
2013-06-03 12:56:00,69.8,55.2,29.91,NW,319,6.0,13.0,60,0.00,,,0.00,Weather View 32 v70,2013-06-03 16:56:00,
2013-06-03 13:00:00,68.0,53.6,29.91,NNW,345,5.0,16.0,60,0.00,,,0.00,Weather View 32 v70,2013-06-03 17:00:00,
2013-06-03 13:01:00,67.6,53.2,29.91,NNW,341,5.0,16.0,60,0.00,,,0.00,Weather View 32 v70,2013-06-03 17:01:00,
2013-06-03 13:06:00,66.7,53.2,29.91,WNW,293,2.0,16.0,62,0.00,,,0.00,Weather View 32 v70,2013-06-03 17:06:00,
2013-06-03 13:11:00,66.3,53.3,29.91,WNW,300,2.0,16.0,63,0.00,,,0.00,Weather View 32 v70,2013-06-03 17:11:00,
2013-06-03 13:17:00,66.2,53.6,29.91,WNW,288,2.0,16.0,64,0.00,,,0.00,Weather View 32 v70,2013-06-03 17:17:00,
2013-06-03 13:22:00,66.3,53.7,29.91,NNW,331,5.0,16.0,64,0.00,,,0.00,Weather View 32 v70,2013-06-03 17:22:00,
2013-06-03 13:29:00,66.2,55.7,29.91,SSE,157,0.0,16.0,69,0.00,,,0.00,Weather View 32 v70,2013-06-03 17:29:00,
2013-06-03 13:34:00,67.4,54.3,29.91,NW,310,4.0,16.0,63,0.00,,,0.00,Weather View 32 v70,2013-06-03 17:34:00,
2013-06-03 13:39:00,67.2,52.8,29.91,NNE,16,5.0,16.0,60,0.00,,,0.00,Weather View 32 v70,2013-06-03 17:39:00,
2013-06-03 13:45:00,66.7,53.2,29.91,SSW,207,2.0,16.0,62,0.00,,,0.00,Weather View 32 v70,2013-06-03 17:45:00,
2013-06-03 13:50:00,66.3,53.3,29.91,North,358,2.0,16.0,63,0.00,,,0.00,Weather View 32 v70,2013-06-03 17:50:00,
2013-06-03 13:56:00,66.7,54.5,29.91,North,6,5.0,16.0,65,0.00,,,0.00,Weather View 32 v70,2013-06-03 17:56:00,
2013-06-03 14:01:00,68.0,54.9,29.91,NW,321,5.0,13.0,63,0.00,,,0.00,Weather View 32 v70,2013-06-03 18:01:00,
2013-06-03 14:06:00,68.0,54.0,29.91,NW,304,2.0,13.0,61,0.00,,,0.00,Weather View 32 v70,2013-06-03 18:06:00,
2013-06-03 14:12:00,68.9,54.4,29.89,North,6,3.0,13.0,60,0.00,,,0.00,Weather View 32 v70,2013-06-03 18:12:00,
2013-06-03 14:17:00,69.9,54.4,29.90,NW,314,3.0,12.0,58,0.00,,,0.00,Weather View 32 v70,2013-06-03 18:17:00,
2013-06-03 14:22:00,70.1,54.6,29.89,North,4,8.0,12.0,58,0.00,,,0.00,Weather View 32 v70,2013-06-03 18:22:00,
2013-06-03 14:27:00,70.1,54.1,29.89,North,3,4.0,14.0,57,0.00,,,0.00,Weather View 32 v70,2013-06-03 18:27:00,
2013-06-03 14:32:00,70.1,54.6,29.88,WNW,284,2.0,14.0,58,0.00,,,0.00,Weather View 32 v70,2013-06-03 18:32:00,
2013-06-03 14:37:00,69.6,53.2,29.89,NW,310,2.0,14.0,56,0.00,,,0.00,Weather View 32 v70,2013-06-03 18:37:00,
2013-06-03 14:42:00,68.5,52.6,29.88,NW,316,3.0,14.0,57,0.00,,,0.00,Weather View 32 v70,2013-06-03 18:42:00,
2013-06-03 14:47:00,68.1,53.2,29.89,NNE,21,5.0,14.0,59,0.00,,,0.00,Weather View 32 v70,2013-06-03 18:47:00,
2013-06-03 14:52:00,68.1,53.2,29.89,SSW,194,0.0,14.0,59,0.00,,,0.00,Weather View 32 v70,2013-06-03 18:52:00,
2013-06-03 14:57:00,68.1,53.2,29.89,WNW,290,2.0,14.0,59,0.00,,,0.00,Weather View 32 v70,2013-06-03 18:57:00,
2013-06-03 15:03:00,68.0,53.1,29.89,WNW,294,3.0,14.0,59,0.00,,,0.00,Weather View 32 v70,2013-06-03 19:03:00,
2013-06-03 15:08:00,68.0,53.6,29.90,NNW,328,3.0,14.0,60,0.00,,,0.00,Weather View 32 v70,2013-06-03 19:08:00,
2013-06-03 15:13:00,68.3,53.8,29.89,NNW,339,6.0,14.0,60,0.00,,,0.00,Weather View 32 v70,2013-06-03 19:13:00,
2013-06-03 15:18:00,68.5,53.6,29.89,NW,317,2.0,14.0,59,0.00,,,0.00,Weather View 32 v70,2013-06-03 19:18:00,
2013-06-03 15:23:00,68.7,54.2,29.89,WSW,242,2.0,14.0,60,0.00,,,0.00,Weather View 32 v70,2013-06-03 19:23:00,
2013-06-03 15:28:00,68.7,52.8,29.89,NNE,15,2.0,14.0,57,0.00,,,0.00,Weather View 32 v70,2013-06-03 19:28:00,
2013-06-03 15:33:00,68.7,53.3,29.89,NNE,28,2.0,14.0,58,0.00,,,0.00,Weather View 32 v70,2013-06-03 19:33:00,
2013-06-03 15:38:00,68.9,53.9,29.89,North,7,4.0,14.0,59,0.00,,,0.00,Weather View 32 v70,2013-06-03 19:38:00,
2013-06-03 15:43:00,68.5,52.6,29.89,NW,311,4.0,14.0,57,0.00,,,0.00,Weather View 32 v70,2013-06-03 19:43:00,
2013-06-03 15:48:00,68.1,53.7,29.89,WNW,299,1.0,14.0,60,0.00,,,0.00,Weather View 32 v70,2013-06-03 19:48:00,
2013-06-03 15:53:00,68.1,52.2,29.89,NE,37,2.0,14.0,57,0.00,,,0.00,Weather View 32 v70,2013-06-03 19:53:00,
2013-06-03 15:59:00,68.3,52.4,29.89,WNW,289,1.0,14.0,57,0.00,,,0.00,Weather View 32 v70,2013-06-03 19:59:00,
2013-06-03 16:04:00,68.1,52.2,29.89,WNW,302,3.0,15.0,57,0.00,,,0.00,Weather View 32 v70,2013-06-03 20:04:00,
2013-06-03 16:09:00,67.4,52.1,29.90,WNW,286,2.0,15.0,58,0.00,,,0.00,Weather View 32 v70,2013-06-03 20:09:00,
2013-06-03 16:14:00,68.0,53.1,29.89,NNW,340,11.0,15.0,59,0.00,,,0.00,Weather View 32 v70,2013-06-03 20:14:00,
2013-06-03 16:19:00,67.8,52.0,29.90,North,350,3.0,15.0,57,0.00,,,0.00,Weather View 32 v70,2013-06-03 20:19:00,
2013-06-03 16:24:00,68.1,53.2,29.90,NW,316,6.0,15.0,59,0.00,,,0.00,Weather View 32 v70,2013-06-03 20:24:00,
2013-06-03 16:29:00,68.0,53.1,29.90,North,352,4.0,15.0,59,0.00,,,0.00,Weather View 32 v70,2013-06-03 20:29:00,
2013-06-03 16:35:00,68.1,52.2,29.90,NNW,344,4.0,15.0,57,0.00,,,0.00,Weather View 32 v70,2013-06-03 20:35:00,
2013-06-03 16:40:00,68.3,52.0,29.90,NNW,342,2.0,15.0,56,0.00,,,0.00,Weather View 32 v70,2013-06-03 20:40:00,
2013-06-03 16:45:00,68.1,52.2,29.90,WNW,300,5.0,15.0,57,0.00,,,0.00,Weather View 32 v70,2013-06-03 20:45:00,
2013-06-03 16:50:00,68.1,51.3,29.90,NNW,332,5.0,15.0,55,0.00,,,0.00,Weather View 32 v70,2013-06-03 20:50:00,
2013-06-03 16:55:00,68.0,52.2,29.90,North,359,4.0,15.0,57,0.00,,,0.00,Weather View 32 v70,2013-06-03 20:55:00,
2013-06-03 17:00:00,68.1,50.3,29.90,WNW,299,4.0,15.0,53,0.00,,,0.00,Weather View 32 v70,2013-06-03 21:00:00,
2013-06-03 17:05:00,67.8,51.0,29.90,NNW,340,7.0,14.0,55,0.00,,,0.00,Weather View 32 v70,2013-06-03 21:05:00,
2013-06-03 17:10:00,68.0,51.7,29.90,WNW,302,6.0,14.0,56,0.00,,,0.00,Weather View 32 v70,2013-06-03 21:10:00,
2013-06-03 17:16:00,67.8,51.0,29.90,NNW,340,5.0,14.0,55,0.00,,,0.00,Weather View 32 v70,2013-06-03 21:16:00,
2013-06-03 17:21:00,68.0,52.2,29.90,NNE,15,1.0,14.0,57,0.00,,,0.00,Weather View 32 v70,2013-06-03 21:21:00,
2013-06-03 17:26:00,68.1,51.3,29.90,NNW,336,6.0,14.0,55,0.00,,,0.00,Weather View 32 v70,2013-06-03 21:26:00,
2013-06-03 17:31:00,68.1,52.2,29.91,WNW,285,1.0,14.0,57,0.00,,,0.00,Weather View 32 v70,2013-06-03 21:31:00,
2013-06-03 17:36:00,68.1,50.8,29.90,North,5,7.0,14.0,54,0.00,,,0.00,Weather View 32 v70,2013-06-03 21:36:00,
2013-06-03 17:41:00,67.8,50.0,29.91,NNW,343,4.0,14.0,53,0.00,,,0.00,Weather View 32 v70,2013-06-03 21:41:00,
2013-06-03 17:47:00,67.4,49.1,29.90,NW,307,5.0,14.0,52,0.00,,,0.00,Weather View 32 v70,2013-06-03 21:47:00,
2013-06-03 17:52:00,67.2,49.9,29.90,NW,319,3.0,14.0,54,0.00,,,0.00,Weather View 32 v70,2013-06-03 21:52:00,
2013-06-03 17:57:00,67.4,49.1,29.90,NNW,347,2.0,14.0,52,0.00,,,0.00,Weather View 32 v70,2013-06-03 21:57:00,
2013-06-03 18:04:00,66.9,49.2,29.91,NNW,334,3.0,14.0,53,0.00,,,0.00,Weather View 32 v70,2013-06-03 22:04:00,
2013-06-03 18:09:00,67.1,49.3,29.91,North,358,2.0,14.0,53,0.00,,,0.00,Weather View 32 v70,2013-06-03 22:09:00,
2013-06-03 18:14:00,66.7,49.5,29.91,WNW,300,5.0,14.0,54,0.00,,,0.00,Weather View 32 v70,2013-06-03 22:14:00,
2013-06-03 18:19:00,66.5,47.8,29.91,NNW,346,5.0,14.0,51,0.00,,,0.00,Weather View 32 v70,2013-06-03 22:19:00,
2013-06-03 18:24:00,66.5,48.8,29.91,North,355,3.0,14.0,53,0.00,,,0.00,Weather View 32 v70,2013-06-03 22:24:00,
2013-06-03 18:29:00,66.2,48.0,29.91,NW,313,3.0,14.0,52,0.00,,,0.00,Weather View 32 v70,2013-06-03 22:29:00,
2013-06-03 18:35:00,66.2,48.0,29.91,NE,44,3.0,14.0,52,0.00,,,0.00,Weather View 32 v70,2013-06-03 22:35:00,
2013-06-03 18:40:00,66.0,48.3,29.91,NE,48,1.0,14.0,53,0.00,,,0.00,Weather View 32 v70,2013-06-03 22:40:00,
2013-06-03 18:45:00,65.6,47.5,29.92,North,357,4.0,14.0,52,0.00,,,0.00,Weather View 32 v70,2013-06-03 22:45:00,
2013-06-03 18:50:00,65.6,48.0,29.92,ENE,58,1.0,14.0,53,0.00,,,0.00,Weather View 32 v70,2013-06-03 22:50:00,
2013-06-03 18:55:00,65.4,48.3,29.92,North,9,3.0,14.0,54,0.00,,,0.00,Weather View 32 v70,2013-06-03 22:55:00,
2013-06-03 19:00:00,65.4,47.3,29.92,NNW,341,5.0,14.0,52,0.00,,,0.00,Weather View 32 v70,2013-06-03 23:00:00,
2013-06-03 19:06:00,65.3,48.2,29.93,NE,44,0.0,11.0,54,0.00,,,0.00,Weather View 32 v70,2013-06-03 23:06:00,
2013-06-03 19:12:00,65.3,47.2,29.93,NW,304,1.0,11.0,52,0.00,,,0.00,Weather View 32 v70,2013-06-03 23:12:00,
2013-06-03 19:17:00,65.3,47.2,29.93,NNW,333,1.0,11.0,52,0.00,,,0.00,Weather View 32 v70,2013-06-03 23:17:00,
2013-06-03 19:22:00,64.9,46.8,29.93,NNW,345,2.0,11.0,52,0.00,,,0.00,Weather View 32 v70,2013-06-03 23:22:00,
2013-06-03 19:27:00,64.7,47.1,29.93,NE,47,2.0,11.0,53,0.00,,,0.00,Weather View 32 v70,2013-06-03 23:27:00,
2013-06-03 19:32:00,64.2,46.2,29.93,West,280,2.0,11.0,52,0.00,,,0.00,Weather View 32 v70,2013-06-03 23:32:00,
2013-06-03 19:38:00,63.5,46.0,29.93,WSW,250,0.0,11.0,53,0.00,,,0.00,Weather View 32 v70,2013-06-03 23:38:00,
2013-06-03 19:43:00,63.1,45.1,29.94,SE,124,0.0,11.0,52,0.00,,,0.00,Weather View 32 v70,2013-06-03 23:43:00,
2013-06-03 19:48:00,62.7,44.3,29.94,NNW,337,1.0,11.0,51,0.00,,,0.00,Weather View 32 v70,2013-06-03 23:48:00,
2013-06-03 19:53:00,62.2,44.8,29.95,NW,313,2.0,11.0,53,0.00,,,0.00,Weather View 32 v70,2013-06-03 23:53:00,
2013-06-03 19:58:00,61.8,43.4,29.95,NW,321,5.0,11.0,51,0.00,,,0.00,Weather View 32 v70,2013-06-03 23:58:00,
2013-06-03 20:03:00,61.5,43.2,29.95,NNW,339,2.0,11.0,51,0.00,,,0.00,Weather View 32 v70,2013-06-04 00:03:00,
2013-06-03 20:08:00,61.1,43.8,29.95,NW,304,1.0,8.0,53,0.00,,,0.00,Weather View 32 v70,2013-06-04 00:08:00,
2013-06-03 20:13:00,60.6,43.3,29.95,NNE,25,4.0,8.0,53,0.00,,,0.00,Weather View 32 v70,2013-06-04 00:13:00,
2013-06-03 20:18:00,60.6,43.3,29.96,NNW,337,3.0,8.0,53,0.00,,,0.00,Weather View 32 v70,2013-06-04 00:18:00,
2013-06-03 20:23:00,60.0,44.2,29.96,WNW,302,0.0,8.0,56,0.00,,,0.00,Weather View 32 v70,2013-06-04 00:23:00,
2013-06-03 20:28:00,59.9,42.7,29.96,NW,315,4.0,8.0,53,0.00,,,0.00,Weather View 32 v70,2013-06-04 00:28:00,
2013-06-03 20:33:00,59.7,43.0,29.96,SSW,209,2.0,8.0,54,0.00,,,0.00,Weather View 32 v70,2013-06-04 00:33:00,
2013-06-03 20:38:00,59.3,43.1,29.97,SSW,206,2.0,8.0,55,0.00,,,0.00,Weather View 32 v70,2013-06-04 00:38:00,
2013-06-03 20:43:00,59.3,43.1,29.97,SSW,208,2.0,8.0,55,0.00,,,0.00,Weather View 32 v70,2013-06-04 00:43:00,
2013-06-03 20:48:00,59.1,43.4,29.97,North,351,0.0,8.0,56,0.00,,,0.00,Weather View 32 v70,2013-06-04 00:48:00,
2013-06-03 20:53:00,58.8,43.1,29.97,SE,125,1.0,8.0,56,0.00,,,0.00,Weather View 32 v70,2013-06-04 00:53:00,
2013-06-03 20:58:00,58.1,42.5,29.98,SSE,163,0.0,8.0,56,0.00,,,0.00,Weather View 32 v70,2013-06-04 00:58:00,
2013-06-03 21:04:00,57.3,42.2,29.98,SSW,195,1.0,8.0,57,0.00,,,0.00,Weather View 32 v70,2013-06-04 01:04:00,
2013-06-03 21:09:00,57.0,41.4,29.98,SSW,211,0.0,8.0,56,0.00,,,0.00,Weather View 32 v70,2013-06-04 01:09:00,
2013-06-03 21:14:00,56.8,41.7,29.98,NW,316,2.0,8.0,57,0.00,,,0.00,Weather View 32 v70,2013-06-04 01:14:00,
2013-06-03 21:19:00,56.6,41.5,29.98,NNE,22,1.0,5.0,57,0.00,,,0.00,Weather View 32 v70,2013-06-04 01:19:00,
2013-06-03 21:24:00,56.3,43.0,29.98,NW,309,1.0,5.0,61,0.00,,,0.00,Weather View 32 v70,2013-06-04 01:24:00,
2013-06-03 21:29:00,55.7,40.7,29.98,WNW,300,1.0,5.0,57,0.00,,,0.00,Weather View 32 v70,2013-06-04 01:29:00,
2013-06-03 21:34:00,55.0,40.0,29.99,WSW,239,1.0,5.0,57,0.00,,,0.00,Weather View 32 v70,2013-06-04 01:34:00,
2013-06-03 21:39:00,55.2,40.2,30.00,SSW,192,1.0,5.0,57,0.00,,,0.00,Weather View 32 v70,2013-06-04 01:39:00,
2013-06-03 21:44:00,55.2,40.7,30.00,West,266,1.0,5.0,58,0.00,,,0.00,Weather View 32 v70,2013-06-04 01:44:00,
2013-06-03 21:49:00,55.0,40.5,30.00,WSW,248,0.0,5.0,58,0.00,,,0.00,Weather View 32 v70,2013-06-04 01:49:00,
2013-06-03 21:54:00,54.8,40.3,29.99,ENE,77,1.0,5.0,58,0.00,,,0.00,Weather View 32 v70,2013-06-04 01:54:00,
2013-06-03 22:00:00,54.8,40.7,30.00,SW,223,2.0,5.0,59,0.00,,,0.00,Weather View 32 v70,2013-06-04 02:00:00,
2013-06-03 22:05:00,54.8,40.7,30.00,SW,217,2.0,5.0,59,0.00,,,0.00,Weather View 32 v70,2013-06-04 02:05:00,
2013-06-03 22:10:00,54.8,41.2,30.00,NNW,335,0.0,5.0,60,0.00,,,0.00,Weather View 32 v70,2013-06-04 02:10:00,
2013-06-03 22:15:00,54.6,41.4,30.01,SW,223,0.0,5.0,61,0.00,,,0.00,Weather View 32 v70,2013-06-04 02:15:00,
2013-06-03 22:20:00,54.6,42.2,30.01,South,185,1.0,3.0,63,0.00,,,0.00,Weather View 32 v70,2013-06-04 02:20:00,
2013-06-03 22:25:00,54.6,42.2,30.01,North,353,2.0,4.0,63,0.00,,,0.00,Weather View 32 v70,2013-06-04 02:25:00,
2013-06-03 22:30:00,54.6,43.0,30.01,NNW,346,2.0,4.0,65,0.00,,,0.00,Weather View 32 v70,2013-06-04 02:30:00,
2013-06-03 22:35:00,54.5,43.0,30.01,NW,314,1.0,4.0,65,0.00,,,0.00,Weather View 32 v70,2013-06-04 02:35:00,
2013-06-03 22:40:00,54.5,43.4,30.01,West,274,0.0,4.0,66,0.00,,,0.00,Weather View 32 v70,2013-06-04 02:40:00,
2013-06-03 22:45:00,54.5,44.1,30.02,West,262,1.0,6.0,68,0.00,,,0.00,Weather View 32 v70,2013-06-04 02:45:00,
2013-06-03 22:50:00,54.6,43.4,30.01,NNW,341,5.0,6.0,66,0.00,,,0.00,Weather View 32 v70,2013-06-04 02:50:00,
2013-06-03 22:55:00,54.6,43.4,30.01,NW,308,1.0,6.0,66,0.00,,,0.00,Weather View 32 v70,2013-06-04 02:55:00,
2013-06-03 23:00:00,55.0,43.4,30.02,NW,320,0.0,6.0,65,0.00,,,0.00,Weather View 32 v70,2013-06-04 03:00:00,
2013-06-03 23:05:00,55.2,43.6,30.02,WNW,303,6.0,6.0,65,0.00,,,0.00,Weather View 32 v70,2013-06-04 03:05:00,
2013-06-03 23:10:00,55.2,43.2,30.02,SSE,157,0.0,8.0,64,0.00,,,0.00,Weather View 32 v70,2013-06-04 03:10:00,
2013-06-03 23:16:00,55.0,42.6,30.02,NW,316,3.0,8.0,63,0.00,,,0.00,Weather View 32 v70,2013-06-04 03:16:00,
2013-06-03 23:21:00,55.0,42.6,30.01,SSW,213,3.0,8.0,63,0.00,,,0.00,Weather View 32 v70,2013-06-04 03:21:00,
2013-06-03 23:26:00,55.2,42.4,30.01,NW,315,3.0,8.0,62,0.00,,,0.00,Weather View 32 v70,2013-06-04 03:26:00,
2013-06-03 23:31:00,54.8,42.4,30.02,NW,320,1.0,8.0,63,0.00,,,0.00,Weather View 32 v70,2013-06-04 03:31:00,
2013-06-03 23:36:00,54.6,42.2,30.01,NNW,330,5.0,8.0,63,0.00,,,0.00,Weather View 32 v70,2013-06-04 03:36:00,
2013-06-03 23:41:00,54.6,42.6,30.02,NNE,16,3.0,11.0,64,0.00,,,0.00,Weather View 32 v70,2013-06-04 03:41:00,
2013-06-03 23:46:00,54.6,43.0,30.03,NE,42,0.0,11.0,65,0.00,,,0.00,Weather View 32 v70,2013-06-04 03:46:00,
2013-06-03 23:51:00,54.3,41.9,30.03,WSW,252,1.0,11.0,63,0.00,,,0.00,Weather View 32 v70,2013-06-04 03:51:00,
2013-06-03 23:56:00,54.1,41.8,30.03,SW,216,0.0,11.0,63,0.00,,,0.00,Weather View 32 v70,2013-06-04 03:56:00,